Вернуться в каталог

FENGYUN 1C DEB

LostSSO
NORAD 31079·DEBRIS·🇨🇳 China

Запущен May 10, 1999 с Taiyuan Satellite Launch Center

Loading…

Ближайшие Пролёты (ближайшие 24 часа)

TLE

УстаревшееSource: Space-Track

Эпоха: Sep 10, 2015, 07:29 UTC

1 31079U 99025BFZ 15253.31222079  .00001357  00000-0  89508-3 0  9996
2 31079  99.0846 284.2475 0062121 103.4289 251.3901 14.02529851434435

Отслеживайте FENGYUN 1C DEB в реальном времени с AllMySat

Download on the App Store